Location: Düngen
(52.0952°N, 10.0219°E)
Time: 19:40:45
(UTC+00:00)

Cosmos 1244 Rocket - Pass Details

Date: 11 March 2026
Orbit: 954 x 996 km, 82.9° (Epoch: 20 April)

Event Time Altitude Azimuth Distance (km) Brightness Sun altitude
Exits shadow 20:43:08 79° 12° (NNE) 1,000 4.4 -30.4°
Drops below altitude 10° 20:49:01 10° 10° (N) 2,750 7.2 -31.1°
Sets 20:51:34 0° 11° (N) 3,708 7.9 -31.3°
